Change the Weather History Date:

Thursday, November 7, 2013

  Actual Average (KFFC) Record (KFFC)
Temperature  
Mean Temperature 58 °F 55 °F  
Max Temperature 71 °F 68 °F 84 °F (2012)
Min Temperature 46 °F 42 °F 26 °F (1998)
Degree Days  
Heating Degree Days 6 10  
Month to date heating degree days 67  
Since 1 July heating degree days 233  
Cooling Degree Days 0 0  
Month to date cooling degree days 2  
Year to date cooling degree days 1650  
Growing Degree Days 8 (Base 50)    
Moisture  
Dew Point 46 °F    
Average Humidity 66    
Maximum Humidity 88    
Minimum Humidity 34    
Precipitation  
Precipitation 0.00 in 0.12 in 0.65 in (2006)
Month to date precipitation 0.75  
Year to date precipitation 42.73  
Snow  
Snow 0.00 in - - ()
Month to date snowfall  
Since 1 July snowfall  
Since 1 September snowfall  
Snow Depth -    
Sea Level Pressure  
Sea Level Pressure 30.12 in    
Wind  
Wind Speed 4 mph (NW)    
Max Wind Speed 14 mph    
Max Gust Speed 21 mph    
Visibility 9 miles    
Events      
T = Trace of Precipitation, MM = Missing Value Source: NWS Daily Summary

Daily Weather History Graph

Daily Weather History Graph

Search for Another Location

Airport or City:

Trip Planner

Search our weather history database for the weather conditions in past years. The results will help you decide how hot, cold, wet, or windy it might be!

Date:

Astronomy

Nov. 07, 2013 Rise Set
Actual Time 7:00 AM EST 5:40 PM EST
Civil Twilight 6:34 AM EST 6:06 PM EST
Nautical Twilight 6:05 AM EST 6:35 PM EST
Astronomical Twilight 5:36 AM EST 7:04 PM EST
Moon 11:05 AM EST (11/7) 9:53 PM EST (11/7)
Length of Visible Light 11h 31m
Length of Day
10h 40m
Waxing Crescent, 22% of the Moon is Illuminated
Nov 7
Waxing Crescent
Nov 10
First Quarter
Nov 17
Full
Nov 25
Last Quarter
Dec 2
New

Hourly Weather History & Observations

Time (EST) Temp. Windchill Dew Point Humidity Pressure Visibility Wind Dir Wind Speed Gust Speed Precip Events Conditions
12:15 AM 55.4 °F - 51.8 °F 88% 30.14 in 7.0 mi Calm Calm - N/A   Clear
12:35 AM 51.8 °F - 48.2 °F 88% 30.14 in 5.0 mi Calm Calm - N/A   Clear
12:55 AM 53.6 °F - 50.0 °F 88% 30.13 in 5.0 mi Calm Calm - N/A   Clear
1:15 AM 53.6 °F - 50.0 °F 88% 30.13 in 7.0 mi Calm Calm - N/A   Clear
1:35 AM 55.4 °F - 51.8 °F 88% 30.12 in 7.0 mi Calm Calm - N/A   Scattered Clouds
1:55 AM 53.6 °F - 50.0 °F 88% 30.11 in 5.0 mi Calm Calm - N/A   Scattered Clouds
2:15 AM 53.6 °F - 50.0 °F 88% 30.10 in 4.0 mi Calm Calm - N/A   Clear
2:55 AM 55.4 °F - 51.8 °F 88% 30.09 in 5.0 mi SSE 3.5 mph - N/A   Clear
3:15 AM 53.6 °F - 50.0 °F 88% 30.08 in 7.0 mi SSE 3.5 mph - N/A   Clear
3:35 AM 55.4 °F - 51.8 °F 88% 30.08 in 4.0 mi Calm Calm - N/A   Clear
3:55 AM 55.4 °F - 51.8 °F 88% 30.08 in 5.0 mi Calm Calm - N/A   Scattered Clouds
4:15 AM 55.4 °F - 51.8 °F 88% 30.08 in 7.0 mi Calm Calm - N/A   Scattered Clouds
4:35 AM 55.4 °F - 51.8 °F 88% 30.08 in 4.0 mi Calm Calm - N/A   Mostly Cloudy
4:55 AM 55.4 °F - 51.8 °F 88% 30.07 in 7.0 mi Calm Calm - N/A   Overcast
5:15 AM 57.2 °F - 53.6 °F 88% 30.07 in 7.0 mi Calm Calm - N/A   Overcast
5:35 AM 57.2 °F - 53.6 °F 88% 30.07 in 7.0 mi Calm Calm - N/A   Overcast
5:55 AM 59.0 °F - 53.6 °F 82% 30.07 in 7.0 mi West 5.8 mph - N/A   Overcast
6:15 AM 59.0 °F - 53.6 °F 82% 30.07 in 10.0 mi West 6.9 mph - N/A   Mostly Cloudy
6:35 AM 59.0 °F - 55.4 °F 88% 30.07 in 10.0 mi West 5.8 mph - N/A   Mostly Cloudy
6:55 AM 60.8 °F - 55.4 °F 82% 30.07 in 10.0 mi West 4.6 mph - N/A   Overcast
7:15 AM 60.8 °F - 55.4 °F 82% 30.08 in 10.0 mi Calm Calm - N/A   Overcast
7:35 AM 60.8 °F - 55.4 °F 82% 30.08 in 10.0 mi Calm Calm - N/A   Overcast
7:55 AM 60.8 °F - 55.4 °F 82% 30.09 in 10.0 mi Calm Calm - N/A   Overcast
8:15 AM 60.8 °F - 55.4 °F 82% 30.10 in 10.0 mi West 3.5 mph - N/A   Overcast
8:35 AM 62.6 °F - 57.2 °F 82% 30.11 in 2.5 mi WNW 10.4 mph 16.1 mph N/A   Haze
8:55 AM 62.6 °F - 57.2 °F 82% 30.12 in 7.0 mi WNW 10.4 mph - N/A   Light Drizzle
9:15 AM 62.6 °F - 57.2 °F 82% 30.11 in 10.0 mi NW 5.8 mph - N/A   Overcast
9:35 AM 62.6 °F - 57.2 °F 82% 30.11 in 10.0 mi NW 4.6 mph - N/A   Overcast
9:55 AM 62.6 °F - 57.2 °F 82% 30.13 in 10.0 mi WNW 6.9 mph - N/A   Overcast
10:15 AM 62.6 °F - 59.0 °F 88% 30.13 in 4.0 mi NW 5.8 mph - N/A   Light Drizzle
10:35 AM 62.6 °F - 59.0 °F 88% 30.12 in 10.0 mi NW 5.8 mph - N/A   Overcast
10:55 AM 64.4 °F - 57.2 °F 77% 30.12 in 10.0 mi NW 6.9 mph - N/A   Overcast
11:15 AM 64.4 °F - 57.2 °F 77% 30.12 in 10.0 mi NNW 6.9 mph - N/A   Overcast
11:35 AM 64.4 °F - 55.4 °F 73% 30.12 in 10.0 mi NNW 8.1 mph - N/A   Overcast
11:55 AM 68.0 °F - 55.4 °F 64% 30.11 in 10.0 mi NW 13.8 mph 18.4 mph N/A   Overcast
12:15 PM 69.8 °F - 53.6 °F 56% 30.11 in 10.0 mi NW 10.4 mph 19.6 mph N/A   Mostly Cloudy
12:35 PM 69.8 °F - 51.8 °F 53% 30.09 in 10.0 mi NNW 9.2 mph 18.4 mph N/A   Mostly Cloudy
12:55 PM 68.0 °F - 51.8 °F 56% 30.09 in 10.0 mi NW 12.7 mph 16.1 mph N/A   Mostly Cloudy
1:15 PM 71.6 °F - 50.0 °F 46% 30.09 in 10.0 mi North 11.5 mph 19.6 mph N/A   Mostly Cloudy
1:35 PM 66.2 °F - 50.0 °F 56% 30.09 in 10.0 mi NW 11.5 mph 18.4 mph N/A   Mostly Cloudy
1:55 PM 66.2 °F - 50.0 °F 56% 30.09 in 10.0 mi NNW 8.1 mph 19.6 mph N/A   Scattered Clouds
2:15 PM 64.4 °F - 46.4 °F 52% 30.10 in 7.0 mi NNW 8.1 mph 20.7 mph N/A   Scattered Clouds
2:35 PM 66.2 °F - 42.8 °F 43% 30.09 in 10.0 mi NNW 9.2 mph 18.4 mph N/A   Clear
2:55 PM 64.4 °F - 42.8 °F 45% 30.09 in 10.0 mi NNW 12.7 mph 17.3 mph N/A   Clear
3:15 PM 64.4 °F - 42.8 °F 45% 30.09 in 10.0 mi NNW 8.1 mph - N/A   Clear
3:35 PM 64.4 °F - 41.0 °F 42% 30.10 in 10.0 mi NW 9.2 mph - N/A   Clear
3:55 PM 64.4 °F - 39.2 °F 40% 30.10 in 7.0 mi NW 10.4 mph 16.1 mph N/A   Clear
4:15 PM 62.6 °F - 35.6 °F 37% 30.10 in 10.0 mi NNW 9.2 mph 17.3 mph N/A   Clear
4:35 PM 62.6 °F - 33.8 °F 34% 30.11 in 10.0 mi NNW 8.1 mph - N/A   Clear
4:55 PM 60.8 °F - 33.8 °F 36% 30.12 in 10.0 mi NNW 8.1 mph 17.3 mph N/A   Clear
5:55 PM 57.2 °F - 30.2 °F 36% 30.14 in 10.0 mi NNW 8.1 mph - N/A   Clear
6:15 PM 55.4 °F - 30.2 °F 38% 30.15 in 10.0 mi NNW 6.9 mph - N/A   Clear
6:35 PM 55.4 °F - 30.2 °F 38% 30.16 in 10.0 mi NNW 5.8 mph 16.1 mph N/A   Clear
6:55 PM 53.6 °F - 32.0 °F 44% 30.17 in 10.0 mi North 6.9 mph - N/A   Clear
7:15 PM 51.8 °F - 32.0 °F 47% 30.18 in 10.0 mi NNW 3.5 mph - N/A   Clear
7:35 PM 51.8 °F - 32.0 °F 47% 30.18 in 10.0 mi North 5.8 mph - N/A   Clear
7:55 PM 51.8 °F - 32.0 °F 47% 30.19 in 10.0 mi North 5.8 mph - N/A   Clear
8:15 PM 50.0 °F - 32.0 °F 50% 30.19 in 10.0 mi North 4.6 mph - N/A   Clear
8:35 PM 50.0 °F - 32.0 °F 50% 30.19 in 10.0 mi NNW 4.6 mph - N/A   Clear
8:55 PM 50.0 °F - 32.0 °F 50% 30.20 in 10.0 mi NNW 3.5 mph - N/A   Clear
9:15 PM 48.2 °F - 32.0 °F 54% 30.19 in 10.0 mi NNW 4.6 mph - N/A   Clear
9:35 PM 46.4 °F 44.3 °F 32.0 °F 57% 30.20 in 10.0 mi NNW 4.6 mph - N/A   Clear
9:55 PM 46.4 °F 43.5 °F 32.0 °F 57% 30.20 in 10.0 mi NNW 5.8 mph - N/A   Clear
10:15 PM 46.4 °F 42.9 °F 32.0 °F 57% 30.21 in 10.0 mi NNW 6.9 mph - N/A   Clear
10:35 PM 46.4 °F 42.9 °F 30.2 °F 53% 30.20 in 10.0 mi NNW 6.9 mph - N/A   Clear
10:55 PM 46.4 °F 42.9 °F 30.2 °F 53% 30.21 in 10.0 mi North 6.9 mph - N/A   Clear
11:15 PM 48.2 °F - 28.4 °F 46% 30.21 in 10.0 mi NNW 9.2 mph 17.3 mph N/A   Clear
11:35 PM 46.4 °F 41.9 °F 28.4 °F 50% 30.21 in 10.0 mi NNW 9.2 mph 16.1 mph N/A   Clear
11:55 PM 46.4 °F 42.4 °F 28.4 °F 50% 30.21 in 10.0 mi NNW 8.1 mph - N/A   Clear